Satellite-Ground Cal/Val Region Overpasses Predictions

Prediction of Satellite NPP Overpassing Cal/Val Region: PacNW

Region Location: (Latitude: 10.00, Longitude: 139.50) to (Latitude: 22.70, Longitude: 165.60).

Table of predicted overpasses for the next 14.0 days since TLE Epoch: 12/20/2012
Interval Starting Time Starting Location Ending Time Ending Location
1 12/21/2012 02:18:13 ( 10.00, 164.68) 12/21/2012 02:21:49 ( 22.68, 161.66)
2 12/21/2012 14:50:07 ( 22.66, 161.90) 12/21/2012 14:53:42 ( 10.04, 158.90)
3 12/22/2012 03:40:42 ( 10.05, 144.05) 12/22/2012 03:44:17 ( 22.67, 141.05)
4 12/22/2012 14:32:19 ( 18.28, 165.59) 12/22/2012 14:34:39 ( 10.05, 163.66)
5 12/22/2012 16:12:34 ( 22.67, 141.29) 12/22/2012 16:14:40 ( 15.27, 139.50)
6 12/23/2012 03:21:39 ( 10.03, 148.81) 12/23/2012 03:25:14 ( 22.65, 145.81)
7 12/23/2012 15:53:32 ( 22.68, 146.06) 12/23/2012 15:57:08 ( 10.00, 143.04)
8 12/24/2012 03:02:37 ( 10.01, 153.58) 12/24/2012 03:06:13 ( 22.69, 150.56)
9 12/24/2012 15:34:30 ( 22.64, 150.81) 12/24/2012 15:38:05 ( 10.02, 147.80)
10 12/25/2012 02:43:35 ( 10.06, 158.33) 12/25/2012 02:47:10 ( 22.68, 155.32)
11 12/25/2012 15:15:28 ( 22.66, 155.57) 12/25/2012 15:19:03 ( 10.04, 152.57)
12 12/26/2012 02:24:33 ( 10.04, 163.09) 12/26/2012 02:28:08 ( 22.66, 160.09)
13 12/26/2012 14:56:25 ( 22.67, 160.33) 12/26/2012 15:00:00 ( 10.05, 157.33)
14 12/27/2012 02:08:14 ( 19.66, 165.59) 12/27/2012 02:09:05 ( 22.65, 164.85)
15 12/27/2012 03:47:00 ( 10.04, 142.48) 12/27/2012 03:50:33 ( 22.54, 139.50)
16 12/27/2012 14:37:23 ( 22.68, 165.10) 12/27/2012 14:40:59 ( 10.00, 162.08)
17 12/27/2012 16:18:53 ( 22.68, 139.72) 12/27/2012 16:19:07 ( 21.86, 139.51)
18 12/28/2012 03:27:58 ( 10.02, 147.24) 12/28/2012 03:31:33 ( 22.64, 144.24)
19 12/28/2012 15:59:50 ( 22.69, 144.48) 12/28/2012 16:03:26 ( 10.01, 141.46)
20 12/29/2012 03:08:55 ( 10.01, 152.00) 12/29/2012 03:12:31 ( 22.69, 148.99)
21 12/29/2012 15:40:49 ( 22.64, 149.23) 12/29/2012 15:44:24 ( 10.02, 146.23)
22 12/30/2012 02:49:54 ( 10.06, 156.75) 12/30/2012 02:53:29 ( 22.68, 153.75)
23
